Weather Roundup
Issued by NWS Springfield, MO

Home | Current Version | Previous Version | Text Only | Print | Product List | Glossary On
Versions: 1 2 3 4 5 6 7 8 9 10 11 12 13 14 15 16 17 18 19 20 21 22 23 24 25 26 27 28 29 30 31 32 33 34 35 36 37 38 39 40 41 42 43 44 45 46 47 48 49 50
000
NZUS99 KSGF 221859
HRRSGF

HOURLY WEATHER
NATIONAL WEATHER SERVICE SPRINGFIELD MO
200 PM CDT FRI AUG 22 2014

......SGF CWA......

CITY           SKY/WX    TMP DP  RH WIND       PRES   REMARKS
SPRINGFIELD    SUNNY     97  67  37 SW13      30.00F HX 101
JOPLIN         SUNNY     97  69  40 S17G24    29.97F HX 103
WEST PLAINS    SUNNY     94  70  45 VRB5      30.04F HX 100
ROLLA          MOSUNNY   94  70  45 VRB5      29.99F HX 100
OSAGE BEACH    MOSUNNY   95  72  46 CALM      29.96F HX 103
BRANSON        MOSUNNY   99  68  36 SW9       30.04F HX 104

......SURROUNDING SGF CWA......

CITY           SKY/WX    TMP DP  RH WIND       PRES   REMARKS
CHANUTE        SUNNY     96  70  42 S12G21    29.95S HX 102
PARSONS        SUNNY     96  71  44 S12G18    29.96F HX 103
COFFEYVILLE    SUNNY     97  71  42 S14       29.93F HX 104
EMPORIA        PTSUNNY   82  70  66 SE8       29.94F
SILOAM SPRINGS SUNNY     90  72  55 SW12      30.04F HX  96
HARRISON AR    SUNNY     93  72  50 S7        30.05F HX 101
NEAR YELLVILLE   N/A     93  70  46 S8        30.03S HX  99

......KANSAS AND MISSOURI......

CITY           SKY/WX    TMP DP  RH WIND       PRES   REMARKS
KANSAS CTY INT CLOUDY    88  73  61 S10       29.94S HX  95
DOWNTOWN KC    PTSUNNY   93  74  53 SE7       29.92S HX 103
COLUMBIA       MOSUNNY   92  72  51 CALM      29.97F HX  99
SEDALIA        MOSUNNY   92  74  55 VRB7      29.97F HX 101
ST JOSEPH      CLOUDY    83  75  77 S10       29.92S HX  90
ST LOUIS       PTSUNNY   93  73  52 VRB6      29.98F HX 102
SPIRIT OF STL  PTSUNNY   90  75  61 VRB5      29.97F HX 100
KIRKSVILLE     PTSUNNY   85  74  69 VRB3      29.97F HX  92
WICHITA        PTSUNNY   98  66  34 S18       29.90F HX 101
TOPEKA         PTSUNNY   93  72  50 S10       29.91S HX 101
OLATHE         PTSUNNY   89  72  56 S7        29.94S HX  96

......TENNESSEE......

CITY           SKY/WX    TMP DP  RH WIND       PRES   REMARKS
MEMPHIS        MOSUNNY   96  72  45 SW9       30.05F HX 104
NASHVILLE      CLOUDY    91  73  55 W6        30.06F HX  99

......ARKANSAS.......

CITY           SKY/WX    TMP DP  RH WIND       PRES   REMARKS
FAYETTEVILLE   SUNNY     92  73  53 S14       30.04F HX 100
FT SMITH       SUNNY     94  74  52 S6        30.00F HX 104
LITTLE ROCK    SUNNY     93  72  50 SW8       30.03F HX 101

......OKLAHOMA.......

CITY           SKY/WX    TMP DP  RH WIND       PRES   REMARKS
TULSA          MOSUNNY   98  70  40 S16G22    29.93F HX 105
PONCA CITY     SUNNY     97  67  37 S13G18    29.92F HX 101
MCALESTER      SUNNY     94  73  50 S7        30.01F HX 103
OKLAHOMA CITY  MOSUNNY   97  66  36 S18G25    29.96F HX 100

......IOWA............

CITY           SKY/WX    TMP DP  RH WIND       PRES   REMARKS
DES MOINES     CLOUDY    85  77  77 CALM      29.92F THUNDER HX  95
QUAD CITIES    PTSUNNY   85  75  72 SW13G21   29.93F HX  93

......ILLINOIS........

CITY           SKY/WX    TMP DP  RH WIND       PRES   REMARKS
QUINCY         MOSUNNY   87  73  62 S3        29.97F HX  94
CHICAGO        PTSUNNY   84  68  58 SW7       29.93F




USA.gov is the U.S. government's official web portal to all federal, state and local government web resources and services.